When you browse on this site, cookies collect data to enhance your experience and personalize the content and advertising you see.
Visit our Privacy Policy to learn more. By continuing to use the site, you agree to this use of cookies and data.
  • En España
  • Lista de países
  • Para 7 días
  • Temperatura del agua
  • El tiempo en el mapa
  • Informadores
  • user-avatar
    Iniciar sesión

    Tiempo cada hora Portu

    Hoy, 28 Mayo, Jueves

    Tiempo Temperatura Precipitaciones Viento Presión Humedad
    00:00 +24°C° 0 mm 1 mps 758 mmHg 53%
    01:00 +24°C° 0 mm 1 mps 758 mmHg 54%
    02:00 +24°C° 0 mm 1 mps 758 mmHg 54%
    03:00 +24°C° 0 mm 1 mps 758 mmHg 55%
    04:00 +23°C° 0 mm 1 mps 758 mmHg 56%
    05:00 +23°C° 0 mm 1 mps 758 mmHg 56%
    06:00 +26°C° 0 mm 1 mps 758 mmHg 50%
    07:00 +28°C° 0 mm 1 mps 758 mmHg 45%
    08:00 +31°C° 0 mm 1 mps 758 mmHg 39%
    09:00 +32°C° 0 mm 1 mps 758 mmHg 35%
    10:00 +35°C° 0 mm 2 mps 758 mmHg 32%
    11:00 +36°C° 0 mm 3 mps 758 mmHg 28%
    12:00 +35°C° 0 mm 3 mps 757 mmHg 30%
    13:00 +34°C° 0 mm 4 mps 757 mmHg 31%
    14:00 +33°C° 0 mm 4 mps 757 mmHg 33%
    15:00 +32°C° 0 mm 4 mps 756 mmHg 35%
    16:00 +30°C° 0 mm 4 mps 756 mmHg 38%
    17:00 +29°C° 0 mm 3 mps 756 mmHg 40%
    18:00 +28°C° 0 mm 3 mps 756 mmHg 43%
    19:00 +27°C° 0 mm 3 mps 756 mmHg 46%
    20:00 +26°C° 0 mm 3 mps 757 mmHg 50%
    21:00 +25°C° 0 mm 3 mps 757 mmHg 51%
    22:00 +25°C° 0 mm 2 mps 756 mmHg 52%
    23:00 +25°C° 0 mm 2 mps 756 mmHg 53%

    Mañana, 29 Mayo, Viernes

    Tiempo Temperatura Precipitaciones Viento Presión Humedad
    00:00 +24°C° 0 mm 2 mps 756 mmHg 54%
    01:00 +24°C° 0 mm 2 mps 756 mmHg 54%
    02:00 +23°C° 0 mm 1 mps 756 mmHg 55%
    03:00 +23°C° 0 mm 1 mps 755 mmHg 56%
    04:00 +23°C° 0 mm 1 mps 755 mmHg 57%
    05:00 +23°C° 0 mm 1 mps 755 mmHg 58%
    06:00 +26°C° 0 mm 1 mps 755 mmHg 52%
    07:00 +28°C° 0 mm 1 mps 755 mmHg 46%
    08:00 +29°C° 0 mm 0 mps 755 mmHg 40%
    09:00 +31°C° 0 mm 1 mps 755 mmHg 37%
    10:00 +32°C° 0 mm 2 mps 754 mmHg 34%
    11:00 +34°C° 0 mm 3 mps 754 mmHg 32%
    12:00 +34°C° 0 mm 3 mps 754 mmHg 33%
    13:00 +33°C° 0 mm 4 mps 753 mmHg 35%
    14:00 +33°C° 0 mm 4 mps 753 mmHg 37%
    15:00 +32°C° 0 mm 4 mps 753 mmHg 39%
    16:00 +30°C° 0 mm 4 mps 753 mmHg 42%
    17:00 +30°C° 0 mm 4 mps 752 mmHg 44%
    18:00 +28°C° 0 mm 4 mps 752 mmHg 48%
    19:00 +27°C° 0 mm 3 mps 753 mmHg 53%
    20:00 +25°C° 0 mm 3 mps 753 mmHg 58%
    21:00 +25°C° 0 mm 3 mps 753 mmHg 59%
    22:00 +24°C° 0 mm 2 mps 753 mmHg 61%
    23:00 +24°C° 0 mm 2 mps 753 mmHg 62%

    Pasado mañana, 30 Mayo, Sábado

    Tiempo Temperatura Precipitaciones Viento Presión Humedad
    00:00 +24°C° 0 mm 2 mps 753 mmHg 63%
    01:00 +23°C° 0 mm 2 mps 753 mmHg 64%
    02:00 +23°C° 0 mm 1 mps 752 mmHg 65%
    03:00 +23°C° 0 mm 1 mps 752 mmHg 64%
    04:00 +23°C° 0 mm 1 mps 752 mmHg 64%
    05:00 +23°C° 0 mm 1 mps 752 mmHg 63%
    06:00 +26°C° 0 mm 1 mps 752 mmHg 57%
    07:00 +28°C° 0 mm 1 mps 752 mmHg 50%
    08:00 +30°C° 0 mm 1 mps 752 mmHg 44%
    09:00 +32°C° 0 mm 1 mps 752 mmHg 41%
    10:00 +34°C° 0 mm 2 mps 752 mmHg 38%
    11:00 +35°C° 0 mm 2 mps 752 mmHg 35%
    12:00 +34°C° 0 mm 2 mps 752 mmHg 39%
    13:00 +31°C° 0 mm 2 mps 751 mmHg 44%
    14:00 +30°C° 0 mm 2 mps 751 mmHg 48%
    15:00 +29°C° 0.1 mm 3 mps 751 mmHg 51%
    16:00 +28°C° 0.1 mm 3 mps 751 mmHg 53%
    17:00 +27°C° 0.1 mm 4 mps 751 mmHg 55%
    18:00 +26°C° 0 mm 3 mps 751 mmHg 58%
    19:00 +25°C° 0 mm 2 mps 751 mmHg 60%
    20:00 +24°C° 0 mm 1 mps 752 mmHg 63%
    21:00 +24°C° 0 mm 1 mps 751 mmHg 63%
    22:00 +24°C° 0 mm 1 mps 751 mmHg 63%
    23:00 +23°C° 0 mm 2 mps 751 mmHg 63%

    31 Mayo, Domingo

    Tiempo Temperatura Precipitaciones Viento Presión Humedad
    00:00 +23°C° 0 mm 1 mps 751 mmHg 63%
    01:00 +23°C° 0 mm 1 mps 751 mmHg 62%
    02:00 +23°C° 0 mm 1 mps 751 mmHg 62%
    03:00 +23°C° 0 mm 1 mps 751 mmHg 61%
    04:00 +23°C° 0 mm 1 mps 751 mmHg 61%
    05:00 +23°C° 0 mm 1 mps 751 mmHg 60%
    06:00 +25°C° 0.5 mm 1 mps 751 mmHg 59%
    07:00 +24°C° 0.5 mm 0 mps 751 mmHg 58%
    08:00 +25°C° 0.5 mm 0 mps 752 mmHg 56%
    09:00 +28°C° 0.2 mm 1 mps 752 mmHg 51%
    10:00 +30°C° 0.2 mm 1 mps 752 mmHg 46%
    11:00 +31°C° 0.2 mm 1 mps 752 mmHg 41%
    12:00 +32°C° 0.2 mm 2 mps 751 mmHg 40%
    13:00 +33°C° 0.2 mm 3 mps 751 mmHg 38%
    14:00 +34°C° 0.2 mm 3 mps 751 mmHg 36%
    15:00 +31°C° 0.7 mm 3 mps 751 mmHg 44%
    16:00 +29°C° 0.7 mm 3 mps 750 mmHg 51%
    17:00 +27°C° 0.7 mm 3 mps 750 mmHg 59%
    18:00 +26°C° 1.6 mm 2 mps 751 mmHg 65%
    19:00 +24°C° 1.6 mm 2 mps 751 mmHg 71%
    20:00 +23°C° 1.6 mm 2 mps 752 mmHg 77%
    21:00 +23°C° 0.2 mm 2 mps 752 mmHg 77%
    22:00 +23°C° 0.2 mm 2 mps 752 mmHg 77%
    23:00 +21°C° 0.2 mm 2 mps 752 mmHg 77%

    1 Junio, Lunes

    Tiempo Temperatura Precipitaciones Viento Presión Humedad
    00:00 +21°C° 0 mm 2 mps 751 mmHg 76%
    01:00 +21°C° 0 mm 2 mps 751 mmHg 76%
    02:00 +21°C° 0 mm 2 mps 751 mmHg 75%
    03:00 +21°C° 0 mm 2 mps 751 mmHg 75%
    04:00 +20°C° 0 mm 2 mps 751 mmHg 76%
    05:00 +21°C° 0 mm 1 mps 751 mmHg 76%
    06:00 +23°C° 0 mm 1 mps 751 mmHg 69%
    07:00 +25°C° 0 mm 2 mps 751 mmHg 62%
    08:00 +27°C° 0 mm 2 mps 751 mmHg 55%
    09:00 +28°C° 0 mm 2 mps 751 mmHg 52%
    10:00 +29°C° 0 mm 2 mps 751 mmHg 49%
    11:00 +29°C° 0 mm 3 mps 751 mmHg 45%
    12:00 +29°C° 0 mm 3 mps 751 mmHg 47%
    13:00 +29°C° 0 mm 3 mps 751 mmHg 49%
    14:00 +28°C° 0 mm 3 mps 750 mmHg 50%
    15:00 +27°C° 0.5 mm 3 mps 750 mmHg 55%
    16:00 +26°C° 0.5 mm 3 mps 750 mmHg 61%
    17:00 +25°C° 0.5 mm 3 mps 750 mmHg 66%
    18:00 +24°C° 0.9 mm 2 mps 750 mmHg 70%
    19:00 +23°C° 0.9 mm 1 mps 750 mmHg 75%
    20:00 +20°C° 0.9 mm 0 mps 751 mmHg 79%
    21:00 +19°C° 0.5 mm 0 mps 751 mmHg 80%
    22:00 +21°C° 0.5 mm 1 mps 751 mmHg 81%
    23:00 +21°C° 0.5 mm 1 mps 751 mmHg 81%

    2 Junio, Martes

    Tiempo Temperatura Precipitaciones Viento Presión Humedad
    00:00 +21°C° 0.2 mm 1 mps 751 mmHg 83%
    01:00 +20°C° 0.2 mm 1 mps 751 mmHg 84%
    02:00 +20°C° 0.2 mm 1 mps 750 mmHg 85%
    03:00 +20°C° 0 mm 1 mps 750 mmHg 86%
    04:00 +20°C° 0 mm 1 mps 751 mmHg 87%
    05:00 +20°C° 0 mm 1 mps 751 mmHg 87%
    06:00 +20°C° 0 mm 2 mps 751 mmHg 82%
    07:00 +23°C° 0 mm 2 mps 751 mmHg 76%
    08:00 +24°C° 0 mm 2 mps 751 mmHg 70%
    09:00 +25°C° 0.1 mm 3 mps 751 mmHg 68%
    10:00 +25°C° 0.1 mm 3 mps 751 mmHg 66%
    11:00 +26°C° 0.1 mm 4 mps 751 mmHg 63%
    12:00 +26°C° 0.1 mm 4 mps 751 mmHg 63%
    13:00 +26°C° 0.1 mm 3 mps 751 mmHg 62%
    14:00 +26°C° 0.1 mm 3 mps 750 mmHg 61%
    15:00 +25°C° 0 mm 3 mps 750 mmHg 63%
    16:00 +24°C° 0 mm 3 mps 750 mmHg 64%
    17:00 +24°C° 0 mm 3 mps 750 mmHg 66%
    18:00 +22°C° 0 mm 3 mps 750 mmHg 72%
    19:00 +20°C° 0 mm 2 mps 750 mmHg 78%
    20:00 +19°C° 0 mm 2 mps 750 mmHg 84%
    21:00 +19°C° 0 mm 2 mps 750 mmHg 86%
    22:00 +18°C° 0 mm 2 mps 750 mmHg 87%
    23:00 +18°C° 0 mm 2 mps 750 mmHg 89%
    Mostrar más